Regional Weather Roundup
Issued by NWS

Home | Current Version | Previous Version | Text Only | Print | Product List | Glossary On
Versions: 1 2 3 4 5 6 7 8 9 10 11 12 13 14 15 16 17 18 19 20 21 22 23 24 25 26 27 28 29 30 31 32 33 34 35 36 37 38 39 40 41 42 43 44 45 46 47 48 49 50
000
ASUS43 KBIS 180120
RWRND

NORTH DAKOTA REGIONAL WEATHER ROUNDUP
NATIONAL WEATHER SERVICE BISMARCK ND
800 PM CDT WED SEP 17 2014

NOTE: "FAIR" INDICATES FEW OR NO CLOUDS BELOW 12,000 FEET WITH NO
SIGNIFICANT WEATHER AND/OR OBSTRUCTIONS TO VISIBILITY.


NDZ001>003-009>011-017-180200-
NORTHWEST NORTH DAKOTA

CITY           SKY/WX    TMP DP  RH WIND       PRES   REMARKS
WILLISTON      CLEAR     68  43  40 SE7       29.91S
MINOT          CLEAR     58  48  69 E7        29.98R
MINOT AFB      CLEAR     59  50  71 E9        29.97S
$$

NDZ018>021-031>035-040>046-180200-
SOUTHWEST NORTH DAKOTA

CITY           SKY/WX    TMP DP  RH WIND       PRES   REMARKS
BISMARCK       CLEAR     61  49  64 E8        29.96S
DICKINSON      CLEAR     59  46  62 SE9       29.94S
GARRISON         N/A     62  49  62 E8        29.96R
HETTINGER ARPT CLEAR     62  52  69 E10       29.96R
$$

NDZ004>008-012>016-024-026-027-054-180200-
NORTHEAST NORTH DAKOTA

CITY           SKY/WX    TMP DP  RH WIND       PRES   REMARKS
GRAND FORKS    CLEAR     57  45  64 NE12      30.03R
GRND FRKS AFB  CLEAR     56  47  72 NE5       30.04R
DEVILS LAKE    CLEAR     52  41  66 E7        30.02S
$$

NDZ022-023-025-028>030-036>039-047>053-180200-
SOUTHEAST NORTH DAKOTA

CITY           SKY/WX    TMP DP  RH WIND       PRES   REMARKS
FARGO          CLEAR     63  52  67 N9        29.99R
JAMESTOWN      CLEAR     57  51  80 E7        29.99S
$$




USA.gov is the U.S. government's official web portal to all federal, state and local government web resources and services.